Other Public Products
Issued by NWS Grand Forks, ND

Home | Current Version | Previous Version | Text Only | Print | Product List | Glossary Off
Versions: 1 2 3 4 5 6 7 8 9 10 11 12 13 14 15 16 17 18 19 20 21 22 23 24 25 26 27 28 29 30 31 32 33 34 35 36 37 38 39 40 41 42 43 44 45 46 47 48 49 50

000
FPUS83 KFGF 231410
OPUFGF
PRAIRIE TO PINES WEATHER ROUNDUP
NATIONAL WEATHER SERVICE EASTERN NORTH DAKOTA/GRAND FORKS ND
900 AM CDT MON APR 23 2018

 **SATELLITE DATA USED TO AUGMENT SKY COVER AT AUTOMATED STATIONS**
 *****  WEATHER ACROSS EASTERN NORTH DAKOTA  *****

CITY           SKY/WX    TMP DP  RH WIND       PRES   REMARKS
GRAND FORKS    FAIR      50  38  63 N9        30.19R
GRND FORKS AFB FAIR      52  34  50 N7        30.19R
GRND FORKS NWS   N/A     49  41  73 VRB6      30.17R
BUXTON           N/A     44  43  96 W2          N/A
DEVILS LAKE    FAIR      45  34  65 N14       30.22R
FARGO          FAIR      47  39  74 S12       30.19F
WAHPETON ARPT  FAIR      45  37  76 SE5       30.21F
$$

 *****  WEATHER ACROSS CENTRAL AND WESTERN NORTH DAKOTA  *****

CITY           SKY/WX    TMP DP  RH WIND       PRES   REMARKS
JAMESTOWN      FAIR      50  37  61 NW6       30.18S
BISMARCK       FAIR      50  32  50 NE13      30.20S
MINOT          FAIR      48  34  58 NW10      30.24R
MINOT AFB      PTSUNNY   42  34  72 NW9       30.23R
GARRISON         N/A     44  33  65 N9        30.22R
WILLISTON      PTSUNNY   43  34  70 NE7       30.28R
DICKINSON      CLOUDY    47  27  45 NE14      30.19R
HETTINGER      PTSUNNY   49  34  56 NE17      30.16S
$$

 *****  OTHER OBSERVATIONS NORTHEAST NORTH DAKOTA  *****

CITY           SKY/WX    TMP DP  RH WIND       PRES   REMARKS
WALHALLA       FAIR      48  36  61 NW16      30.20R
LANGDON        NOT AVBL
CAVALIER         N/A     50  36  57 NW12G18   30.19R
GRAFTON        NOT AVBL
CANDO          FAIR      46  36  66 N12       30.24R
FORT TOTTEN      N/A     46  33  60 N3        29.95S
ROLLA          FAIR      43  36  75 N13       30.22S
RUGBY          NOT AVBL
 ***** THE ABOVE OBSERVATIONS ARE NON NWS ARE NOT QUALITY
        CONTROLLED AND MAY MIS-REPORT RAIN FOR SNOW...
$$

 *****  OTHER OBSERVATIONS SOUTHEAST NORTH DAKOTA *****

CITY           SKY/WX    TMP DP  RH WIND       PRES   REMARKS
COOPERSTOWN    FAIR      45  39  81 N5        30.20S
VALLEY CITY    NOT AVBL
OAKES            N/A     43  43 100 S9        30.20S
GWINNER          N/A     46  41  81 SW12      30.19F
SHEYENNE NWR     N/A     46  44  94 W6        29.95S
BUFFALO          N/A     48  39  73 E3          N/A
WYNDMERE       NOT AVBL
 ***** THE ABOVE OBSERVATIONS ARE NON NWS ARE NOT QUALITY
       CONTROLLED AND MAY MIS-REPORT RAIN FOR SNOW...
$$

  *****  WEATHER ACROSS NORTHERN MINNESOTA  *****

CITY           SKY/WX    TMP DP  RH WIND       PRES   REMARKS
FLAG ISLAND    FAIR      45  34  65 NW14      30.13R
WARROAD        FAIR      48  41  76 W9        30.16R
ROSEAU         FAIR      48  39  71 NW9       30.16S
HALLOCK        FAIR      48  37  66 NW12      30.19S
THF RVR FALLS  FAIR      44  39  82 W7        30.20R
HALSTAD        NOT AVBL
FOSSTON        FAIR      46  37  71 SW10      30.20R
BAUDETTE       FAIR      50  39  66 W8        30.14S
WASKISH        FAIR      45  37  76 W8        30.17S
CROOKSTON      FAIR      45  39  81 SW5       30.20S
$$
  *****  WEATHER ACROSS CENTRAL AND WEST MINNESOTA  *****

CITY           SKY/WX    TMP DP  RH WIND       PRES   REMARKS
BEMIDJI        FAIR      52  36  54 W8        30.18S
PARK RAPIDS    FAIR      50  37  61 SW6       30.20S
WADENA         FAIR      48  37  66 SW3       30.21S
DETROIT LAKES  FAIR      46  36  66 CALM      30.22S
MOORHEAD       FAIR      43  37  81 S6        30.22F
FERGUS FALLS   FAIR      46  37  71 S6        30.20F
ELBOW LAKE     FAIR      47  39  73 CALM      30.23S
MORRIS MN      FAIR      46  39  76 SE7       30.22S
STAPLES        FAIR      48  36  61 S3        30.22F
WHEATON        FAIR      46  39  76 SE6       30.23F
$$
  *****  WEATHER ELSEWHERE ACROSS MINNESOTA  *****

CITY           SKY/WX    TMP DP  RH WIND       PRES   REMARKS
DULUTH         FAIR      54  40  59 W13       30.22S
INTRNTL FALLS  FAIR      51  37  58 W9        30.14S
ELY            CLOUDY    48  30  49 SW8       30.18F
CLOQUET        FAIR      54  36  50 SW8       30.22S
BRAINERD       FAIR      50  36  58 SW5       30.23S
HIBBING        FAIR      47  33  58 VRB3      30.20S
ALEXANDRIA     FAIR      52  36  54 SW9       30.23S
SAINT CLOUD    FAIR      46  41  82 CALM      30.24S
MINNEAPOLIS    FAIR      51  34  52 S5        30.25F
$$

  *****  WEATHER ACROSS SOUTH DAKOTA  *****

CITY           SKY/WX    TMP DP  RH WIND       PRES   REMARKS
SIOUX FALLS    FAIR      48  38  68 CALM      30.22S
BROOKINGS      FAIR      47  38  71 S5        30.22S
WATERTOWN      FAIR      46  38  73 S8        30.21S
HURON          FAIR      46  40  79 SE7       30.19S
SISSETON         N/A     48  41  76 E6        30.19F
ABERDEEN       FAIR      46  40  79 S6        30.21S
MITCHELL       FAIR      47  42  83 SE8       30.20S
PIERRE         FAIR      47  40  76 SE7       30.15S
MOBRIDGE       FAIR      50  38  63 SE7       30.14S
RAPID CITY     FAIR      44  39  82 VRB3      30.09S
$$

  *****  SOME WEATHER IN NEARBY STATES *****

CITY           SKY/WX    TMP DP  RH WIND       PRES   REMARKS
GLASGOW MT     CLOUDY    43  33  68 N5        30.31R
GREAT FALLS MT CLOUDY    37  27  67 NW8       30.34R
CHEYENNE WY    FAIR      45  37  73 SW6       30.10S
SCOTTSBLUFF NE FAIR      43  39  86 E13       30.10S
OMAHA NE       FAIR      50  32  50 N7        30.21R
DES MOINES IA  PTSUNNY   53  31  42 NE7       30.21S
DAVENPORT IA   FAIR      50  28  42 NE13      30.22S
CHICAGO IL     CLOUDY    49  28  44 N14       30.20F
EAU CLAIRE WI  FAIR      50  29  44 CALM      30.27F
LA CROSSE WI   FAIR      49  36  61 NW5       30.28S
$$

  *****  SOME NATIONAL WEATHER *****

CITY           SKY/WX    TMP DP  RH WIND       PRES   REMARKS
LA GUARDIA NY  FAIR      53  28  38 NE8       30.49R
RALEIGH NC     CLOUDY    60  50  69 E7        30.34R
ATLANTA GA     CLOUDY    62  61  96 E9        30.00R
NEW ORLEANS LA FAIR      63  52  67 W13       30.03R
OKLAHOMA CITY  FAIR      56  46  69 N12G17    30.12S
ALBUQUERQUE NM FAIR      53  34  48 N3        30.18R
SALT LAKE CITY FAIR      51  44  77 SW8       30.10R
LOS ANGELES CA CLOUDY    57  55  93 CALM      30.01R FOG
BOISE ID       FAIR      39  26  59 NW7       30.22R
SEATTLE WA     FAIR      44  39  82 NE12      30.34S
$$

*** WEATHER ACROSS MANITOBA...SASKATCHEWAN AND ONTARIO ***
                ***ONTARIO***

CITY           SKY/WX    TMP DP  RH WIND       PRES   REMARKS
GERALDTON      LGT RAIN  45  28  53 SW9       30.08F
THUNDER BAY    PTSUNNY   50  28  43 E3        30.16F
SIOUX LOOKOUT  MOSUNNY   50  36  57 SW10      30.05S
TORONTO        MOSUNNY   55  21  26 SE8       30.39F
BIG TROUT LK   LGT RAIN  41  32  70 W18G28    29.78R
PICKLE LAKE    MOSUNNY   50  36  57 W16G26    29.93S
DRYDEN         SUNNY     50  37  62 SW13      30.07S
KENORA         MOSUNNY   48  34  57 NW13G20   30.10R
$$
                *** MANITOBA***

CITY           SKY/WX    TMP DP  RH WIND       PRES   REMARKS
BRANDON        MOSUNNY   41  34  75 NW13      30.21S
DAUPHIN        SUNNY     45  36  70 W18G25    30.17R
ISLAND LAKE    FLURRIES  34  28  80 W18G24    29.92R WCI  23
PILOT MOUND      N/A     43  34  70 NW8         N/A
THE PAS        PTSUNNY   34  27  75 NW13G22   30.09R WCI  25
THOMPSON       FLURRIES  23  18  80 NW9G17    29.99R WCI  13
WINNIPEG       PTSUNNY   48  34  57 NW17G24   30.18R
LYNN LAKE      LGT SNOW  16  12  86 N13       30.07R VSB 1   WCI   2
CHURCHILL      LGT SNOW  21  18  86 NE28G37   29.97R BLWGSNOWWCI   3
GILLAM         FLURRIES  25  19  80 NW21G26   29.88R WCI  10
$$
                ***SASKATCHEWAN***

CITY           SKY/WX    TMP DP  RH WIND       PRES   REMARKS
ESTEVAN        CLOUDY    39  34  81 NW9       30.27R
KINDERSLEY     MOSUNNY   36  30  80 NW6       30.36R
LLOYDMINSTER   MOSUNNY   36  27  69 W10       30.33R
PRINCE ALBERT  MOSUNNY   39  30  70 NW16      30.26R
REGINA         PTSUNNY   39  36  87 NW12      30.29R
YORKTON        SUNNY     41  36  81 W13       30.21R



USA.gov is the U.S. government's official web portal to all federal, state and local government web resources and services.